Regional Weather Roundup
Issued by NWS

Home | Current Version | Previous Version | Text Only | Print | Product List | Glossary Off
Versions: 1 2 3 4 5 6 7 8 9 10 11 12 13 14 15 16 17 18 19 20 21 22 23 24 25 26 27 28 29 30 31 32 33 34 35 36 37 38 39 40 41 42 43 44 45 46 47 48 49 50

000
ASUS43 KLMK 271410
RWRKY
KENTUCKY REGIONAL WEATHER ROUNDUP
NATIONAL WEATHER SERVICE LOUISVILLE KY
1000 AM EDT THU AUG 27 2015

NOTE "FAIR" INDICATES FEW OR NO CLOUDS BELOW 12,000 FEET
WITH NO SIGNIFICANT WEATHER AND/OR OBSTRUCTIONS TO VISIBILITY.

KYZ001>023-026-027-061>063-070>075-271500-
WESTERN AND SOUTH CENTRAL KENTUCKY

CITY           SKY/WX    TMP DP  RH WIND       PRES   REMARKS
PADUCAH        SUNNY     68  60  75 NE3       30.16R
HENDERSON      SUNNY     66  59  77 E3        30.16R
OWENSBORO      SUNNY     72  60  65 CALM      30.18R
HOPKINSVILLE   SUNNY     69  60  73 NE5       30.15R
BOWLING GREEN  SUNNY     68  58  70 CALM      30.16R
GLASGOW        SUNNY     67  59  75 NE5       30.16R
$$

KYZ024-025-028>034-038-045-046-053-271500-
NORTH CENTRAL KENTUCKY

CITY           SKY/WX    TMP DP  RH WIND       PRES   REMARKS
LOUISVILLE/SDF SUNNY     69  56  62 CALM      30.18R
LOUISVILLE/LOU SUNNY     70  57  63 CALM      30.19R
FORT KNOX      SUNNY     67  57  71 VRB2      30.17R
$$

KYZ035>037-039>044-047>052-055>060-089>105-271500-
NORTHEAST KENTUCKY

CITY           SKY/WX    TMP DP  RH WIND       PRES   REMARKS
LEXINGTON      SUNNY     68  53  58 VRB3      30.19R
COVINGTON      CLOUDY    68  58  70 CALM      30.20R
FRANKFORT      SUNNY     67  56  67 E5        30.18R
$$

KYZ054-064>069-076>088-106>120-271500-
SOUTHEAST KENTUCKY

CITY           SKY/WX    TMP DP  RH WIND       PRES   REMARKS
JACKSON        SUNNY     64  56  75 VRB3      30.18S
LONDON         SUNNY     67  56  67 VRB3      30.16S
SOMERSET       SUNNY     64  55  72 E7        30.17S
MIDDLESBORO    CLOUDY    57  57  99 CALM      30.16S
MONTICELLO     SUNNY     68  61  78 NE7       30.18F
$$




USA.gov is the U.S. government's official web portal to all federal, state and local government web resources and services.